Temperature
2 3 3 2 1 1 1 1 1 2 2 3 2 1 1 1 1 0 -0 -1 -1 -2 -2 -3 -3 -3 -3 -3 -3 -3 -3 -3 -3 -3 -3 -3 -3 -3 -3 -3 -3 -3 -3 -3
1 2 2 1 1 1 1 1 1 1 1 1 1 1 0 -0 -0 -1 -1 -2 -2 -2 -3 -3 -3 -3 -3 -3 -3 -4 -4 -4 -4 -4 -4 -4 -4 -4 -4 -4 -4 -4 -4 -4
1 2 1 0 1 1 1 0 -0 0 0 -0 -1 -1 -1 -1 -1 -1 -2 -2 -3 -3 -3 -3 -4 -4 -4 -4 -4 -5 -5 -5 -5 -4 -4 -4 -4 -4 -5 -5 -5 -5 -5 -5
0 0 0 2 1 1 0 -1 -1 -1 -1 -1 -1 -1 -1 -1 -2 -2 -2 -3 -3 -3 -4 -4 -4 -4 -5 -5 -5 -5 -5 -5 -5 -5 -5 -5 -5 -5 -5 -5 -6 -6 -6 -6
0 0 1 1 -0 -1 -1 -2 -2 -2 -2 -2 -2 -2 -2 -1 -2 -2 -3 -3 -3 -4 -4 -4 -5 -5 -6 -6 -6 -6 -6 -6 -6 -6 -6 -6 -6 -6 -6 -6 -6 -6 -6 -6
-0 0 0 1 -2 -2 -2 -2 -2 -2 -3 -3 -3 -3 -3 -2 -3 -3 -4 -4 -4 -5 -5 -5 -5 -6 -6 -7 -7 -7 -7 -7 -7 -7 -7 -7 -7 -7 -7 -7 -7 -7 -7 -7
-1 -0 -0 -2 -4 -2 -1 -1 -3 -3 -3 -4 -4 -4 -4 -4 -4 -4 -5 -5 -5 -6 -6 -6 -6 -7 -7 -7 -7 -8 -8 -8 -8 -8 -8 -8 -8 -8 -8 -8 -8 -8 -8 -8
-1 -1 -1 -5 -5 -4 -3 -3 -3 -3 -3 -4 -4 -5 -5 -5 -5 -5 -6 -6 -6 -7 -7 -7 -7 -7 -8 -8 -8 -8 -8 -9 -9 -9 -9 -8 -9 -9 -9 -9 -9 -9 -9 -9
-2 -2 -3 -4 -4 -3 -3 -4 -4 -4 -4 -5 -5 -6 -6 -6 -6 -7 -7 -7 -8 -8 -8 -8 -8 -8 -9 -9 -9 -9 -9 -9 -10 -9 -9 -9 -10 -10 -10 -10 -10 -10 -10 -10
-4 -4 -4 -4 -4 -4 -4 -4 -5 -5 -5 -5 -6 -6 -7 -7 -7 -8 -8 -8 -8 -9 -9 -9 -9 -9 -9 -10 -10 -10 -10 -10 -10 -10 -10 -10 -11 -11 -11 -11 -11 -11 -11 -11
-5 -5 -5 -4 -4 -4 -4 -5 -5 -5 -6 -6 -6 -7 -7 -8 -8 -9 -9 -9 -9 -9 -9 -10 -10 -10 -10 -10 -11 -11 -11 -11 -11 -11 -11 -11 -11 -12 -12 -12 -12 -12 -12 -11
-5 -4 -5 -5 -4 -5 -5 -5 -6 -6 -6 -7 -7 -8 -8 -9 -9 -9 -10 -10 -10 -10 -10 -10 -10 -11 -11 -11 -12 -12 -12 -12 -12 -12 -12 -12 -12 -12 -12 -12 -12 -12 -12 -12
-4 -4 -5 -5 -5 -6 -6 -6 -7 -7 -7 -8 -8 -8 -9 -9 -10 -10 -10 -10 -11 -11 -11 -11 -11 -11 -12 -12 -12 -12 -13 -13 -13 -13 -13 -13 -13 -13 -13 -13 -13 -13 -13 -13
-5 -6 -6 -6 -7 -7 -7 -7 -8 -8 -8 -9 -9 -9 -10 -10 -10 -11 -11 -11 -11 -12 -12 -12 -12 -12 -12 -13 -13 -13 -13 -14 -14 -14 -14 -14 -14 -14 -14 -14 -14 -13 -13 -13
-7 -7 -7 -8 -8 -8 -8 -8 -9 -9 -9 -9 -10 -10 -10 -11 -11 -11 -12 -12 -12 -12 -12 -13 -13 -13 -13 -13 -14 -14 -14 -14 -14 -14 -14 -14 -14 -14 -15 -15 -15 -14 -14 -14
-8 -8 -8 -8 -9 -9 -9 -9 -10 -10 -10 -10 -11 -11 -11 -12 -12 -12 -12 -12 -13 -13 -13 -13 -13 -14 -14 -14 -14 -14 -14 -15 -15 -15 -15 -15 -15 -15 -15 -15 -15 -15 -15 -15
-9 -9 -9 -9 -9 -10 -10 -10 -10 -10 -11 -11 -11 -12 -12 -12 -12 -12 -13 -13 -13 -14 -14 -14 -14 -14 -14 -15 -15 -15 -15 -15 -15 -15 -15 -15 -15 -16 -16 -16 -16 -16 -16 -16
-9 -9 -9 -10 -10 -10 -10 -10 -11 -11 -12 -12 -12 -13 -13 -13 -13 -13 -13 -14 -14 -14 -14 -14 -15 -15 -15 -15 -15 -16 -16 -16 -16 -16 -16 -16 -16 -16 -16 -16 -16 -16 -16 -16
-9 -9 -9 -10 -10 -11 -11 -11 -11 -12 -12 -13 -13 -13 -13 -14 -14 -14 -14 -14 -15 -15 -15 -15 -15 -15 -15 -16 -16 -16 -16 -16 -16 -16 -16 -16 -17 -16 -17 -17 -17 -17 -17 -16
-9 -9 -10 -10 -11 -11 -11 -12 -12 -12 -13 -13 -14 -14 -14 -14 -14 -15 -15 -15 -15 -15 -15 -16 -16 -16 -16 -16 -16 -16 -16 -17 -17 -17 -17 -17 -17 -17 -17 -17 -17 -17 -17 -17
-10 -10 -10 -11 -11 -12 -12 -12 -13 -13 -13 -14 -14 -14 -15 -15 -15 -15 -15 -15 -15 -16 -16 -16 -16 -16 -16 -16 -17 -17 -17 -17 -17 -17 -17 -17 -17 -17 -17 -17 -17 -17 -17 -17
-10 -11 -11 -11 -12 -12 -13 -13 -13 -14 -14 -14 -15 -15 -15 -15 -15 -16 -16 -16 -16 -16 -17 -17 -17 -17 -17 -17 -17 -17 -17 -17 -18 -18 -18 -18 -18 -18 -18 -18 -18 -18 -18 -18
-11 -11 -12 -12 -13 -13 -13 -14 -14 -14 -14 -15 -15 -15 -16 -16 -16 -16 -16 -16 -17 -17 -17 -17 -17 -17 -17 -17 -17 -17 -18 -18 -18 -18 -18 -18 -18 -18 -18 -18 -18 -18 -18 -18
-12 -12 -12 -13 -13 -14 -14 -14 -14 -15 -15 -15 -15 -16 -16 -16 -16 -16 -17 -17 -17 -17 -17 -17 -17 -18 -18 -18 -18 -18 -18 -18 -18 -18 -18 -18 -18 -18 -18 -18 -18 -18 -18 -18
-13 -13 -13 -14 -14 -14 -14 -15 -15 -15 -16 -16 -16 -16 -16 -17 -17 -17 -17 -17 -17 -18 -18 -18 -18 -18 -18 -18 -18 -18 -18 -18 -18 -19 -19 -19 -19 -19 -19 -19 -19 -19 -19 -19
-13 -14 -14 -14 -15 -15 -15 -15 -15 -16 -16 -16 -16 -16 -17 -17 -17 -17 -18 -18 -18 -18 -18 -18 -18 -18 -18 -18 -19 -19 -19 -19 -19 -19 -19 -19 -19 -19 -19 -19 -19 -19 -19 -19
-14 -14 -15 -15 -15 -15 -16 -16 -16 -16 -16 -17 -17 -17 -17 -17 -17 -17 -18 -18 -18 -18 -18 -18 -18 -18 -19 -19 -19 -19 -19 -19 -19 -19 -19 -19 -20 -20 -19 -19 -19 -19 -19 -19
Wind_Speed
10 10 7 9 9 9 11 11 11 11 12 12 8 5 4 3 2 1 1 1 1 1 1 0 1 1 1 1 2 2 2 2 2 2 2 1 1 1 1 2 2 3 3 3
9 10 9 11 12 12 13 12 14 16 17 12 7 4 3 3 3 3 3 2 2 2 1 1 0 1 1 2 2 2 2 2 2 2 2 2 1 2 2 2 2 2 3 3
8 6 6 11 12 13 10 10 10 14 13 7 6 5 5 4 4 4 3 2 1 1 1 1 1 1 1 1 2 1 2 2 2 2 2 2 2 2 2 2 2 3 3 3
5 4 10 9 3 7 10 10 9 9 8 6 7 5 3 2 2 2 2 1 1 1 1 1 1 1 1 1 1 2 2 2 2 2 2 3 2 3 3 2 3 3 3 4
4 7 10 7 3 3 6 8 7 9 9 8 5 4 4 1 1 1 1 1 1 1 1 1 1 1 1 1 1 2 2 3 3 2 3 3 3 3 3 3 3 3 4 4
6 6 7 6 1 0 2 6 3 4 7 5 1 3 5 2 3 3 2 1 1 1 1 0 1 1 1 1 1 2 3 3 3 2 2 3 3 3 3 3 4 4 4 4
9 9 8 3 1 2 3 6 2 2 3 2 3 5 2 2 2 2 2 1 1 1 1 1 1 1 2 2 2 3 2 2 2 3 3 3 3 3 3 3 4 4 4 4
7 8 9 2 4 5 5 2 1 2 2 2 3 2 1 1 1 1 1 1 1 0 1 1 1 1 2 3 3 2 1 2 2 3 3 3 2 3 3 3 3 4 4 5
7 8 2 5 5 3 0 2 2 2 3 2 3 3 2 1 1 1 1 1 0 0 0 1 1 1 2 3 2 1 2 2 3 3 3 3 3 3 3 3 3 4 4 4
5 7 5 4 4 3 3 4 4 3 3 2 3 3 2 2 1 1 1 1 1 0 1 2 1 2 2 2 1 1 2 3 3 3 3 3 3 3 3 3 3 4 4 4
7 7 5 5 5 5 4 3 3 2 2 2 2 3 2 2 2 1 1 1 1 1 1 2 2 2 2 1 1 2 3 3 3 3 3 3 3 3 4 4 5 5 4 4
8 6 5 5 2 2 3 3 3 2 2 1 1 2 1 1 1 1 1 1 1 2 2 2 2 2 2 1 1 2 3 3 3 3 3 3 3 4 6 6 8 9 9 9
6 4 3 4 2 1 1 2 1 2 2 1 1 1 1 1 1 1 1 1 2 2 3 3 3 3 3 2 2 3 3 4 3 3 3 3 3 4 5 6 8 9 10 11
3 2 4 3 2 1 1 1 1 1 1 0 0 1 0 1 1 1 2 2 2 2 2 3 3 4 4 3 2 3 3 5 4 3 3 3 4 4 4 5 5 5 7 10
3 3 4 2 1 1 0 0 0 1 1 1 1 1 1 1 2 3 2 2 2 3 3 3 3 4 3 2 3 3 4 3 3 3 3 4 4 4 4 4 5 5 5 6
2 2 3 3 3 2 1 1 2 2 1 1 1 1 1 2 2 2 2 2 2 4 4 4 4 4 3 2 3 3 4 6 5 3 3 3 4 4 4 4 4 4 5 5
2 3 3 3 3 3 2 2 3 3 2 2 2 2 2 2 2 3 3 3 3 4 4 4 4 4 3 3 3 3 3 4 7 5 3 4 4 4 4 4 4 4 5 7
4 4 3 3 3 3 3 2 2 2 2 2 2 1 2 2 4 4 4 4 4 4 4 4 4 4 3 3 3 3 3 3 3 3 3 4 4 4 4 4 4 5 5 6
2 2 2 2 2 2 2 3 3 2 2 2 2 2 3 4 4 4 4 3 4 5 4 4 7 4 3 4 4 3 3 3 3 3 3 5 5 4 3 4 4 5 5 5
1 1 1 1 1 1 2 2 2 2 2 2 2 3 3 4 4 3 3 4 4 4 4 5 4 4 4 4 5 3 3 3 4 3 3 3 4 4 4 4 4 5 5 5
2 1 1 1 2 2 2 2 2 2 2 2 3 4 4 4 3 3 3 5 5 4 4 6 3 3 3 4 5 3 3 3 3 3 4 4 4 4 4 4 4 5 5 5
2 2 2 2 2 2 2 2 2 3 3 3 3 3 4 4 4 4 4 5 5 6 4 3 3 5 6 5 2 2 3 3 3 4 4 4 4 4 4 4 4 4 4 4
2 2 2 2 2 2 2 2 3 3 4 4 4 4 4 4 3 3 5 4 3 6 4 3 6 8 8 4 2 2 3 3 4 4 4 4 4 4 4 4 4 4 4 4
1 2 2 1 1 2 3 3 3 3 4 4 4 5 4 4 4 3 4 6 7 8 4 7 9 9 7 2 2 3 3 3 4 4 4 4 4 4 4 4 5 5 5 5
2 2 2 2 2 3 3 3 3 3 3 3 4 4 4 3 4 4 3 4 7 8 5 7 9 9 5 3 3 3 4 4 5 4 4 4 4 4 4 5 5 5 5 5
2 2 3 3 3 3 2 2 3 3 3 3 3 3 3 3 3 3 3 4 5 7 5 4 5 6 4 4 4 4 4 5 6 5 5 5 5 5 5 5 6 6 6 6
2 2 2 2 2 2 2 3 3 3 3 4 4 4 3 3 3 3 4 4 4 4 4 4 4 4 4 4 4 5 5 5 5 5 5 5 5 5 6 6 6 6 6 7
Wind_Direction
261 270 268 258 250 228 227 233 243 259 265 272 275 271 276 277 273 275 227 199 183 194 216 214 38 16 356 348 346 346 338 317 301 310 316 309 307 300 300 301 296 296 285 281
263 252 254 266 253 238 236 240 247 262 269 274 284 295 297 295 275 264 261 242 224 218 214 215 268 306 325 330 332 337 324 311 315 314 314 299 284 288 281 284 289 289 282 276
263 264 281 263 240 225 229 224 225 245 257 283 290 279 266 267 259 250 252 250 239 226 222 233 239 250 254 288 317 315 304 304 302 299 298 291 283 281 272 274 278 277 275 272
266 279 250 246 217 208 225 241 230 242 262 271 270 273 268 260 250 264 269 270 275 268 267 261 240 265 275 287 290 289 290 295 294 291 290 295 284 277 277 276 273 273 277 274
244 257 267 266 225 187 214 257 237 240 264 277 293 300 279 292 328 290 279 274 273 268 269 254 214 224 224 258 268 276 284 288 287 283 283 287 280 278 283 281 276 271 272 268
236 247 253 261 240 18 137 265 263 233 261 282 325 270 269 8 11 2 1 4 347 346 352 297 245 198 203 244 259 269 277 284 292 288 278 278 275 277 281 277 273 275 277 271
236 245 257 257 190 112 182 257 299 250 260 262 229 243 283 1 359 3 4 7 33 37 0 298 284 196 218 240 256 272 285 297 300 293 284 281 276 275 276 278 281 278 278 278
218 233 249 176 136 187 230 319 325 309 289 261 261 284 304 349 343 350 357 8 41 75 308 306 287 215 240 260 272 286 293 295 295 293 291 293 278 278 278 275 276 277 275 277
207 223 250 169 197 225 277 273 284 290 289 274 273 276 276 281 291 316 326 328 342 210 271 303 279 237 253 278 290 298 291 285 288 292 293 290 280 273 275 269 267 273 273 275
249 255 251 226 233 258 250 255 272 271 275 263 256 264 266 266 273 288 306 315 333 317 286 297 291 277 273 287 301 296 286 286 285 283 286 287 283 275 268 263 262 269 273 277
249 270 286 253 235 249 259 255 264 272 267 255 246 260 252 258 263 270 290 319 324 285 272 283 290 291 295 294 284 280 282 283 284 282 280 282 282 277 275 263 260 265 261 263
242 237 231 253 253 267 255 258 256 255 276 289 250 254 252 260 266 279 295 314 309 296 290 293 297 295 297 282 266 275 284 286 285 286 282 280 285 295 294 286 286 284 281 278
246 273 261 267 285 283 261 281 289 254 245 272 307 277 247 281 297 307 303 299 287 288 290 293 296 298 298 286 277 270 274 284 286 286 284 283 282 284 296 303 297 294 292 291
257 282 277 262 262 277 272 313 5 350 335 254 314 349 342 328 323 306 293 294 299 303 297 295 296 295 297 286 275 276 276 281 285 281 282 282 282 283 285 292 303 303 300 298
260 239 246 268 295 310 20 58 17 314 334 347 11 355 338 311 299 296 301 310 313 304 299 296 291 291 296 287 283 278 278 274 274 275 276 278 281 282 283 286 290 299 307 310
263 255 249 249 252 248 234 236 251 273 287 300 317 314 304 292 291 296 301 301 294 290 290 287 286 291 293 283 283 279 274 281 285 279 275 277 277 277 278 280 286 292 298 304
223 254 247 252 253 255 245 242 244 257 269 268 272 287 301 308 309 304 300 291 279 280 279 279 284 292 290 278 268 272 273 278 288 290 280 277 276 275 275 276 280 284 288 294
223 239 233 237 248 252 256 251 248 251 251 254 267 276 277 277 279 286 293 296 294 293 289 288 286 289 283 278 271 271 269 270 272 274 278 278 276 273 276 278 279 283 291 297
228 239 246 240 238 230 239 247 249 253 256 245 245 254 261 265 271 281 292 291 287 288 293 287 296 301 290 283 287 266 266 270 274 275 276 281 289 285 276 275 278 281 287 292
240 242 238 259 263 241 253 257 251 256 255 238 243 261 274 278 278 282 284 275 266 268 281 288 288 282 277 274 283 269 266 267 271 275 274 271 273 277 277 277 277 278 280 282
245 248 252 259 274 270 256 249 244 257 265 247 241 254 267 277 276 269 273 280 284 278 279 289 293 285 279 279 280 272 267 270 272 273 272 271 271 272 274 276 278 278 277 280
230 232 242 248 259 278 278 258 245 252 259 255 253 256 266 277 278 269 254 258 280 293 297 277 276 283 288 287 264 257 262 265 268 270 271 270 270 272 273 275 276 278 278 278
229 226 234 243 250 268 282 266 249 244 248 250 251 254 258 263 265 268 281 277 277 288 293 274 285 291 296 295 274 263 263 264 266 269 272 272 271 271 273 274 275 276 276 277
252 244 242 246 239 253 268 267 256 251 251 255 251 247 249 266 271 256 262 287 294 295 289 288 294 296 301 306 288 277 272 272 269 267 267 269 272 273 273 274 276 278 277 276
252 253 246 238 242 251 257 265 270 266 263 264 263 257 247 245 258 272 271 275 286 295 294 294 297 301 306 297 286 280 277 273 273 273 266 270 271 272 273 274 274 276 276 275
248 250 249 244 247 256 259 255 262 269 273 279 280 272 265 263 262 267 271 271 272 290 295 289 287 291 289 282 279 278 276 281 288 287 282 278 275 273 274 274 273 273 275 275
254 256 259 265 263 251 249 253 260 267 268 270 281 282 274 273 271 271 274 276 277 279 279 279 277 273 272 272 275 276 275 274 271 271 273 273 273 272 272 271 273 274 275 274
Height
1486 1483 1484 1484 1485 1487 1488 1484 1484 1473 1469 1463 1462 1463 1462 1461 1461 1461 1460 1460 1459 1459 1459 1459 1459 1458 1458 1457 1457 1457 1456 1456 1456 1456 1457 1457 1457 1457 1458 1458 1458 1458 1458 1458
1486 1481 1481 1481 1477 1478 1478 1478 1475 1471 1465 1459 1460 1460 1460 1459 1459 1458 1458 1457 1457 1457 1456 1456 1455 1455 1455 1454 1454 1454 1453 1453 1453 1453 1453 1453 1453 1453 1453 1453 1453 1454 1454 1454
1483 1478 1480 1476 1467 1468 1469 1467 1468 1466 1460 1457 1457 1457 1457 1456 1456 1455 1455 1455 1454 1454 1453 1453 1453 1452 1452 1451 1451 1450 1450 1449 1449 1449 1449 1448 1448 1448 1448 1448 1449 1449 1449 1449
1482 1482 1479 1459 1457 1458 1460 1460 1461 1459 1456 1455 1454 1454 1454 1453 1453 1452 1452 1451 1451 1451 1450 1450 1450 1449 1449 1448 1448 1447 1447 1446 1446 1445 1445 1445 1444 1444 1444 1444 1444 1444 1444 1444
1480 1477 1466 1456 1456 1457 1459 1457 1455 1455 1453 1452 1451 1450 1450 1449 1449 1449 1449 1448 1448 1448 1447 1447 1446 1446 1445 1445 1444 1444 1443 1442 1442 1442 1441 1441 1440 1440 1440 1439 1439 1439 1439 1439
1477 1474 1468 1454 1456 1454 1457 1457 1451 1451 1450 1450 1450 1452 1448 1446 1446 1445 1445 1445 1445 1444 1444 1443 1443 1442 1441 1441 1440 1440 1439 1439 1439 1438 1437 1437 1436 1436 1435 1435 1434 1434 1434 1434
1474 1469 1460 1456 1455 1455 1459 1453 1450 1448 1448 1448 1448 1447 1446 1444 1443 1443 1442 1442 1441 1440 1440 1439 1439 1438 1438 1437 1437 1437 1436 1436 1435 1435 1434 1433 1432 1432 1431 1430 1430 1429 1429 1429
1469 1466 1458 1456 1455 1456 1451 1449 1448 1447 1446 1446 1445 1444 1443 1441 1441 1440 1439 1438 1437 1437 1436 1436 1436 1435 1434 1434 1434 1433 1432 1432 1431 1430 1430 1429 1428 1427 1427 1426 1425 1424 1424 1423
1461 1456 1451 1450 1448 1448 1448 1447 1446 1445 1444 1443 1442 1441 1440 1439 1438 1437 1436 1435 1434 1434 1433 1433 1432 1432 1431 1431 1430 1429 1428 1427 1427 1426 1425 1425 1424 1423 1422 1422 1421 1420 1419 1418
1455 1449 1447 1447 1446 1445 1445 1444 1443 1442 1441 1440 1439 1438 1437 1436 1434 1433 1433 1432 1431 1430 1430 1429 1429 1429 1428 1428 1427 1426 1424 1423 1422 1422 1421 1420 1420 1419 1418 1417 1416 1416 1415 1414
1452 1447 1445 1442 1442 1441 1441 1440 1439 1438 1438 1436 1435 1434 1433 1432 1431 1430 1430 1429 1428 1427 1426 1426 1426 1425 1425 1424 1423 1422 1421 1419 1418 1418 1417 1416 1415 1415 1414 1413 1413 1412 1411 1410
1445 1441 1442 1439 1438 1438 1437 1436 1435 1435 1433 1433 1432 1431 1430 1429 1428 1427 1426 1426 1425 1424 1423 1423 1422 1421 1421 1420 1419 1418 1417 1416 1415 1414 1413 1412 1411 1410 1409 1409 1409 1408 1407 1407
1437 1437 1436 1435 1435 1434 1433 1432 1432 1431 1430 1429 1428 1428 1426 1426 1425 1424 1423 1423 1422 1421 1420 1420 1419 1418 1417 1416 1415 1414 1413 1412 1411 1410 1409 1409 1407 1406 1405 1404 1404 1403 1402 1401
1434 1434 1432 1431 1431 1430 1430 1429 1428 1427 1426 1426 1425 1424 1423 1423 1422 1421 1421 1420 1419 1418 1417 1416 1415 1414 1413 1412 1411 1410 1409 1408 1408 1407 1406 1405 1404 1403 1402 1400 1399 1397 1398 1397
1430 1430 1430 1428 1428 1427 1426 1426 1425 1424 1423 1422 1422 1421 1420 1419 1419 1418 1418 1417 1416 1414 1413 1412 1411 1410 1409 1408 1407 1406 1405 1404 1404 1403 1402 1401 1400 1399 1398 1397 1395 1394 1393 1392
1427 1426 1426 1425 1424 1424 1423 1422 1421 1420 1420 1419 1419 1418 1417 1417 1416 1415 1414 1413 1412 1410 1409 1408 1407 1406 1405 1404 1403 1402 1401 1401 1400 1399 1398 1397 1396 1395 1394 1393 1392 1391 1389 1388
1424 1422 1422 1421 1421 1420 1420 1419 1419 1418 1417 1416 1415 1415 1414 1413 1412 1411 1411 1410 1408 1407 1406 1405 1404 1403 1402 1401 1399 1398 1397 1397 1396 1395 1394 1393 1393 1392 1391 1390 1388 1387 1386 1385
1420 1419 1419 1418 1418 1417 1416 1416 1415 1415 1414 1413 1412 1412 1411 1410 1408 1408 1407 1406 1405 1404 1403 1402 1400 1399 1398 1397 1396 1395 1394 1393 1392 1391 1390 1389 1389 1388 1387 1386 1384 1383 1381 1381
1416 1416 1415 1415 1415 1414 1413 1413 1412 1411 1411 1410 1409 1408 1407 1407 1406 1405 1404 1402 1401 1399 1399 1398 1397 1396 1394 1393 1392 1391 1390 1389 1388 1387 1386 1385 1385 1383 1383 1381 1380 1379 1378 1376
1413 1413 1412 1412 1411 1411 1410 1409 1409 1408 1407 1407 1406 1405 1404 1403 1403 1401 1400 1399 1398 1397 1396 1395 1393 1392 1391 1390 1389 1388 1386 1385 1384 1383 1382 1381 1380 1379 1378 1377 1376 1375 1374 1373
1410 1410 1409 1409 1408 1408 1407 1406 1406 1405 1404 1404 1403 1401 1401 1400 1399 1398 1396 1395 1395 1394 1393 1391 1390 1389 1388 1387 1385 1384 1383 1381 1380 1380 1379 1377 1376 1375 1374 1373 1372 1371 1370 1369
1408 1407 1406 1406 1405 1404 1404 1403 1402 1402 1401 1400 1399 1398 1397 1396 1396 1395 1393 1392 1391 1390 1389 1388 1387 1386 1385 1383 1382 1380 1379 1378 1377 1376 1375 1374 1373 1371 1370 1369 1368 1367 1366 1365
1405 1404 1403 1402 1402 1401 1401 1400 1399 1398 1398 1397 1396 1395 1394 1393 1392 1391 1389 1389 1388 1387 1385 1384 1383 1382 1381 1380 1378 1377 1375 1374 1373 1372 1371 1370 1369 1368 1366 1365 1364 1363 1362 1360
1402 1401 1400 1400 1399 1398 1397 1397 1396 1395 1395 1394 1393 1392 1390 1389 1388 1387 1386 1385 1384 1383 1382 1380 1380 1378 1377 1375 1374 1373 1371 1370 1369 1368 1367 1366 1364 1363 1362 1361 1359 1358 1357 1356
1399 1398 1398 1397 1396 1395 1394 1394 1393 1392 1391 1390 1389 1388 1387 1386 1385 1383 1382 1381 1380 1379 1377 1376 1375 1374 1373 1371 1370 1369 1367 1366 1365 1364 1362 1361 1360 1359 1357 1356 1355 1353 1352 1351
1396 1395 1395 1394 1393 1393 1392 1391 1389 1388 1387 1386 1385 1384 1383 1382 1381 1380 1379 1377 1376 1375 1373 1372 1371 1369 1368 1367 1366 1364 1363 1362 1360 1359 1358 1356 1355 1354 1352 1351 1350 1349 1347 1346
1393 1392 1391 1391 1390 1389 1388 1387 1386 1385 1384 1383 1382 1381 1380 1378 1377 1376 1375 1373 1372 1370 1369 1368 1366 1365 1363 1362 1361 1360 1358 1357 1355 1354 1353 1351 1350 1348 1347 1346 1345 1343 1342 1341